Location: ??????
(36.0418°N, 43.6351°E)
Time: 03:08:01
(UTC+00:00)

Cosmos 407 Rocket - Pass Details

Date: 07 March 2021
Orbit: 744 x 786 km, 74.0° (Epoch: 19 April)

Event Time Altitude Azimuth Distance (km) Brightness Sun altitude
Exits shadow 01:56:43 - 194° (SSW) 3,152 6.5 -19.2°
Reaches altitude 10° 01:58:56 10° 194° (SSW) 2,283 5.7 -18.7°
Maximum altitude 02:04:07 85° 107° (ESE) 762 3.5 -17.7°
Drops below altitude 10° 02:09:16 10° 19° (NNE) 2,273 6.3 -16.7°
Sets 02:11:38 0° 19° (NNE) 3,197 7.0 -16.2°
